Location: ??
(34.9170°N, 135.5016°E)
Time: 01:00:48
(UTC+00:00)

RS-15 - Pass Details

Date: 24 April 2021
Orbit: 1888 x 2157 km, 64.8° (Epoch: 12 May)

Event Time Altitude Azimuth Distance (km) Brightness Sun altitude
Rises 17:06:52 0° 332° (NNW) 5,540 10.7 -32.8°
Reaches altitude 10° 17:10:24 10° 337° (NNW) 4,568 10.2 -32.4°
Maximum altitude 17:22:08 54° 53° (NE) 2,489 8.7 -30.8°
Drops below altitude 10° 17:34:04 10° 129° (SE) 4,665 10.0 -29.1°
Sets 17:37:40 0° 134° (SE) 5,663 10.5 -28.6°
